Home   Weather   Nanning   Past weeks

Flag for China Past Weather in Nanning, Guangxi, China — Yesterday and Last 2 Weeks

Now
84 °F

Clear.


Feels Like: 92 °F
Forecast: 79 / 93 °F
Wind: 1 mph from North

Location: Nanning Airport

Current Time: Sep 27, 2016 at 11:47:43 PM

Latest Report: Sep 27, 2016 at 11:00 PM


Visibility: 10 mi

Pressure: 29.74 "Hg

Humidity: 74%

Dew Point: 75 °F

Location of NanningLocation

Past Weather in Nanning — Graph

°F

Nanning Temperature Yesterday

Maximum temperature yesterday: 93 °F (at 3:00 PM)
Minimum temperature yesterday: 75 °F (at 5:00 AM)
Average temperature yesterday: 83 °F

High & Low Weather Summary for the Past Weeks

 TemperatureHumidityPressure
High97 °F (Sep 27, 4:00 PM)100% (Sep 14, 6:00 AM)30.04 "Hg (Sep 14, 6:00 AM)
Low70 °F (Sep 21, 6:00 AM)40% (Sep 20, 12:00 PM)29.65 "Hg (Sep 27, 4:00 PM)
Average82 °F72%29.83 "Hg
* Reported Sep 12 10:00 PM — Sep 27 10:00 PM, Nanning, Weather by CustomWeather, © 2016

Note: Actual official high and low records may vary slightly from our data, if they occured in-between our weather recording intervals... More about our weather records

Advertising

Nanning Weather History for the Previous 24 Hours

Scroll right to see more
 ConditionsComfort  
Time TempWeatherWind HumidityBarometerVisibility
10:00 PM
Tue, Sep 27
84 °FClear.1 mph74%29.71 "Hg10 mi
9:00 PM84 °FClear.1 mph79%29.71 "Hg10 mi
8:00 PM88 °FPassing clouds.3 mph66%29.65 "HgN/A
7:00 PM90 °FPassing clouds.3 mph67%29.65 "HgN/A
6:00 PM93 °FSunny.1 mph49%29.65 "Hg10 mi
5:00 PM95 °FPassing clouds.3 mph44%29.65 "HgN/A
4:00 PM97 °FPassing clouds.6 mph42%29.65 "HgN/A
3:00 PM95 °FScattered clouds.6 mph47%29.68 "HgN/A
2:00 PM95 °FScattered clouds.3 mph47%29.71 "HgN/A
1:00 PM93 °FScattered clouds.6 mph53%29.74 "HgN/A
12:00 PM93 °FScattered clouds.3 mph53%29.77 "HgN/A
11:00 AM90 °FPassing clouds.3 mph59%29.80 "HgN/A
10:00 AM88 °FSunny.1 mph62%29.83 "Hg10 mi
9:00 AM81 °FPassing clouds.3 mph84%29.80 "HgN/A
8:00 AM77 °FSunny.1 mph83%29.80 "Hg10 mi
7:00 AM73 °FSunny.3 mph89%29.77 "Hg10 mi
6:00 AM73 °FClear.No wind89%29.77 "Hg10 mi
5:00 AM73 °FClear.3 mph89%29.74 "Hg6 mi
4:00 AM75 °FClear.1 mph89%29.74 "Hg4 mi
3:00 AM77 °FClear.1 mph83%29.74 "Hg4 mi
2:00 AM77 °FClear.1 mph89%29.77 "Hg4 mi
1:00 AM77 °FClear.1 mph89%29.77 "Hg4 mi
12:00 AM79 °FClear.1 mph84%29.77 "Hg10 mi
11:00 PM
Mon, Sep 26
81 °FClear.1 mph79%29.77 "Hg10 mi
Weather by CustomWeather, © 2016

See weather overviewHow to use our weather pages